Time,TemperatureF,DewpointF,PressureIn,WindDirection,WindDirectionDegrees,WindSpeedMPH,WindSpeedGustMPH,Humidity,HourlyPrecipIn,Conditions,Clouds,dailyrainin,SolarRadiationWatts/m^2,SoftwareType,DateUTC
2013-04-02 00:00:00,49.4,43.5,30.16,SW,218,9.0,14.0,80,0.00,,---,0.00,0.00,VWS V14.01,2013-04-02 07:00:00,
2013-04-02 00:05:00,49.3,43.4,30.16,WSW,257,7.0,14.0,80,0.00,,---,0.00,0.00,VWS V14.01,2013-04-02 07:05:00,
2013-04-02 00:10:00,49.2,43.3,30.16,SW,221,4.0,14.0,80,0.00,,---,0.00,0.00,VWS V14.01,2013-04-02 07:10:00,
2013-04-02 00:15:00,49.2,43.3,30.16,West,269,6.0,14.0,80,0.00,,---,0.00,0.00,VWS V14.01,2013-04-02 07:15:00,
2013-04-02 00:20:00,49.2,43.3,30.16,WSW,247,6.0,14.0,80,0.00,,---,0.00,0.00,VWS V14.01,2013-04-02 07:20:00,
2013-04-02 00:25:00,49.2,43.3,30.16,SW,235,2.0,14.0,80,0.00,,---,0.00,0.00,VWS V14.01,2013-04-02 07:25:00,
2013-04-02 00:30:00,49.2,43.3,30.16,WSW,237,10.0,10.0,80,0.00,,---,0.00,0.00,VWS V14.01,2013-04-02 07:30:00,
2013-04-02 00:35:00,49.2,43.3,30.16,SW,225,4.0,12.0,80,0.00,,---,0.00,0.00,VWS V14.01,2013-04-02 07:35:00,
2013-04-02 00:40:00,49.2,43.3,30.16,SW,216,8.0,12.0,80,0.00,,---,0.00,0.00,VWS V14.01,2013-04-02 07:40:00,
2013-04-02 00:45:00,49.2,43.3,30.17,SSW,208,9.0,12.0,80,0.00,,---,0.00,0.00,VWS V14.01,2013-04-02 07:45:00,
2013-04-02 00:50:00,49.3,43.4,30.17,SW,215,9.0,14.0,80,0.00,,---,0.00,0.00,VWS V14.01,2013-04-02 07:50:00,
2013-04-02 00:55:00,49.3,43.4,30.17,WSW,249,10.0,14.0,80,0.00,,---,0.00,0.00,VWS V14.01,2013-04-02 07:55:00,
2013-04-02 01:00:00,49.3,43.1,30.17,West,264,7.0,12.0,79,0.00,,---,0.00,0.00,VWS V14.01,2013-04-02 08:00:00,
2013-04-02 01:05:00,49.3,43.1,30.17,WSW,243,8.0,14.0,79,0.00,,---,0.00,0.00,VWS V14.01,2013-04-02 08:05:00,
2013-04-02 01:10:00,49.2,43.3,30.17,SW,223,8.0,14.0,80,0.00,,---,0.00,0.00,VWS V14.01,2013-04-02 08:10:00,
2013-04-02 01:15:00,49.2,43.3,30.17,SW,234,9.0,15.0,80,0.00,,---,0.00,0.00,VWS V14.01,2013-04-02 08:15:00,
2013-04-02 01:20:00,49.2,43.3,30.18,WSW,253,7.0,15.0,80,0.00,,---,0.00,0.00,VWS V14.01,2013-04-02 08:20:00,
2013-04-02 01:25:00,49.1,43.2,30.18,WSW,241,6.0,15.0,80,0.00,,---,0.00,0.00,VWS V14.01,2013-04-02 08:25:00,
2013-04-02 01:30:00,49.0,43.1,30.18,WSW,243,10.0,11.0,80,0.00,,---,0.00,0.00,VWS V14.01,2013-04-02 08:30:00,
2013-04-02 01:35:00,49.0,43.1,30.18,WSW,252,7.0,11.0,80,0.00,,---,0.00,0.00,VWS V14.01,2013-04-02 08:35:00,
2013-04-02 01:40:00,48.9,43.0,30.18,WSW,256,5.0,12.0,80,0.00,,---,0.00,0.00,VWS V14.01,2013-04-02 08:40:00,
2013-04-02 01:45:00,48.9,43.0,30.18,WSW,256,8.0,12.0,80,0.00,,---,0.00,0.00,VWS V14.01,2013-04-02 08:45:00,
2013-04-02 01:50:00,48.9,43.0,30.18,SW,235,5.0,12.0,80,0.00,,---,0.00,0.00,VWS V14.01,2013-04-02 08:50:00,
2013-04-02 01:55:00,48.9,43.0,30.18,SW,231,4.0,12.0,80,0.00,,---,0.00,0.00,VWS V14.01,2013-04-02 08:55:00,
2013-04-02 02:00:00,49.0,42.8,30.17,SW,230,10.0,10.0,79,0.00,,---,0.00,0.00,VWS V14.01,2013-04-02 09:00:00,
2013-04-02 02:05:00,49.0,42.8,30.18,WSW,247,6.0,10.0,79,0.00,,---,0.00,0.00,VWS V14.01,2013-04-02 09:05:00,
2013-04-02 02:10:00,49.0,42.8,30.18,WSW,237,7.0,10.0,79,0.00,,---,0.00,0.00,VWS V14.01,2013-04-02 09:10:00,
2013-04-02 02:15:00,49.0,42.8,30.18,WSW,245,5.0,10.0,79,0.00,,---,0.00,0.00,VWS V14.01,2013-04-02 09:15:00,
2013-04-02 02:20:00,49.0,42.8,30.18,WSW,241,1.0,13.0,79,0.00,,---,0.00,0.00,VWS V14.01,2013-04-02 09:20:00,
2013-04-02 02:25:00,49.0,42.8,30.18,WSW,251,4.0,13.0,79,0.00,,---,0.00,0.00,VWS V14.01,2013-04-02 09:25:00,
2013-04-02 02:30:00,49.0,42.8,30.18,West,262,5.0,10.0,79,0.00,,---,0.00,0.00,VWS V14.01,2013-04-02 09:30:00,
2013-04-02 02:35:00,49.0,42.8,30.18,West,274,5.0,11.0,79,0.00,,---,0.00,0.00,VWS V14.01,2013-04-02 09:35:00,
2013-04-02 02:40:00,49.0,42.8,30.18,SW,230,7.0,12.0,79,0.00,,---,0.00,0.00,VWS V14.01,2013-04-02 09:40:00,
2013-04-02 02:45:00,48.9,42.3,30.18,SW,233,5.0,15.0,78,0.00,,---,0.00,0.00,VWS V14.01,2013-04-02 09:45:00,
2013-04-02 02:50:00,48.8,42.3,30.18,West,260,6.0,15.0,78,0.00,,---,0.00,0.00,VWS V14.01,2013-04-02 09:50:00,
2013-04-02 02:55:00,48.7,42.2,30.18,West,279,6.0,15.0,78,0.00,,---,0.00,0.00,VWS V14.01,2013-04-02 09:55:00,
2013-04-02 03:00:00,48.7,42.2,30.18,West,274,1.0,6.0,78,0.00,,---,0.00,0.00,VWS V14.01,2013-04-02 10:00:00,
2013-04-02 03:05:00,48.7,42.2,30.18,West,263,7.0,7.0,78,0.00,,---,0.00,0.00,VWS V14.01,2013-04-02 10:05:00,
2013-04-02 03:10:00,48.7,42.2,30.18,West,260,5.0,8.0,78,0.00,,---,0.00,0.00,VWS V14.01,2013-04-02 10:10:00,
2013-04-02 03:15:00,48.7,42.5,30.18,West,260,3.0,8.0,79,0.00,,---,0.00,0.00,VWS V14.01,2013-04-02 10:15:00,
2013-04-02 03:20:00,48.7,42.5,30.18,West,260,4.0,8.0,79,0.00,,---,0.00,0.00,VWS V14.01,2013-04-02 10:20:00,
2013-04-02 03:25:00,48.7,42.5,30.18,West,260,4.0,8.0,79,0.00,,---,0.00,0.00,VWS V14.01,2013-04-02 10:25:00,
2013-04-02 03:30:00,48.8,42.6,30.18,West,260,0.0,5.0,79,0.00,,---,0.00,0.00,VWS V14.01,2013-04-02 10:30:00,
2013-04-02 03:35:00,48.8,42.6,30.18,West,260,4.0,6.0,79,0.00,,---,0.00,0.00,VWS V14.01,2013-04-02 10:35:00,
2013-04-02 03:40:00,48.8,42.6,30.18,West,259,3.0,10.0,79,0.00,,---,0.00,0.00,VWS V14.01,2013-04-02 10:40:00,
2013-04-02 03:45:00,48.9,42.7,30.18,WSW,258,5.0,10.0,79,0.00,,---,0.00,0.00,VWS V14.01,2013-04-02 10:45:00,
2013-04-02 03:50:00,48.9,42.7,30.18,WSW,255,1.0,10.0,79,0.00,,---,0.00,0.00,VWS V14.01,2013-04-02 10:50:00,
2013-04-02 03:55:00,48.9,42.7,30.18,WSW,249,1.0,10.0,79,0.00,,---,0.00,0.00,VWS V14.01,2013-04-02 10:55:00,
2013-04-02 04:00:00,48.9,42.7,30.18,WSW,243,5.0,8.0,79,0.00,,---,0.00,0.00,VWS V14.01,2013-04-02 11:00:00,
2013-04-02 04:05:00,48.9,42.7,30.18,WSW,243,4.0,8.0,79,0.00,,---,0.00,0.00,VWS V14.01,2013-04-02 11:05:00,
2013-04-02 04:10:00,48.9,42.7,30.18,WSW,239,6.0,8.0,79,0.00,,---,0.00,0.00,VWS V14.01,2013-04-02 11:10:00,
2013-04-02 04:15:00,48.9,42.7,30.18,WSW,239,1.0,8.0,79,0.00,,---,0.00,0.00,VWS V14.01,2013-04-02 11:15:00,
2013-04-02 04:20:00,48.9,42.7,30.18,WSW,239,6.0,8.0,79,0.00,,---,0.00,0.00,VWS V14.01,2013-04-02 11:20:00,
2013-04-02 04:25:00,48.9,42.7,30.18,WSW,237,4.0,8.0,79,0.00,,---,0.00,0.00,VWS V14.01,2013-04-02 11:25:00,
2013-04-02 04:30:00,48.9,42.7,30.19,WSW,237,2.0,5.0,79,0.00,,---,0.00,0.00,VWS V14.01,2013-04-02 11:30:00,
2013-04-02 04:35:00,48.9,42.7,30.18,WSW,247,5.0,9.0,79,0.00,,---,0.00,0.00,VWS V14.01,2013-04-02 11:35:00,
2013-04-02 04:39:00,48.9,42.7,30.18,West,261,2.0,9.0,79,0.00,,---,0.00,0.00,VWS V14.01,2013-04-02 11:39:00,
2013-04-02 04:44:00,48.9,42.7,30.18,WSW,243,4.0,9.0,79,0.00,,---,0.00,0.00,VWS V14.01,2013-04-02 11:44:00,
2013-04-02 04:49:00,48.8,42.6,30.19,SW,229,5.0,9.0,79,0.00,,---,0.00,0.00,VWS V14.01,2013-04-02 11:49:00,
2013-04-02 04:54:00,48.8,42.9,30.18,WSW,251,1.0,9.0,80,0.00,,---,0.00,0.00,VWS V14.01,2013-04-02 11:54:00,
2013-04-02 04:59:00,48.8,42.9,30.19,SW,229,4.0,7.0,80,0.00,,---,0.00,0.00,VWS V14.01,2013-04-02 11:59:00,
2013-04-02 05:00:00,48.8,42.9,30.18,SW,233,5.0,9.0,80,0.00,,---,0.00,0.00,VWS V14.01,2013-04-02 12:00:00,
2013-04-02 05:04:00,48.8,42.9,30.18,SW,234,7.0,7.0,80,0.00,,---,0.00,0.00,VWS V14.01,2013-04-02 12:04:00,
2013-04-02 05:09:00,48.7,42.8,30.18,SW,227,5.0,9.0,80,0.00,,---,0.00,0.00,VWS V14.01,2013-04-02 12:09:00,
2013-04-02 05:14:00,48.6,42.7,30.18,SSW,213,4.0,10.0,80,0.00,,---,0.00,0.00,VWS V14.01,2013-04-02 12:14:00,
2013-04-02 05:19:00,48.6,42.7,30.18,SW,225,0.0,10.0,80,0.00,,---,0.00,0.00,VWS V14.01,2013-04-02 12:19:00,
2013-04-02 05:24:00,48.6,42.7,30.18,SSW,212,5.0,10.0,80,0.00,,---,0.00,0.00,VWS V14.01,2013-04-02 12:24:00,
2013-04-02 05:29:00,48.5,42.6,30.18,SW,214,6.0,10.0,80,0.00,,---,0.00,0.00,VWS V14.01,2013-04-02 12:29:00,
2013-04-02 05:30:00,48.5,42.6,30.18,SSW,212,1.0,10.0,80,0.00,,---,0.00,0.00,VWS V14.01,2013-04-02 12:30:00,
2013-04-02 05:34:00,48.5,43.0,30.18,SW,214,6.0,10.0,81,0.00,,---,0.00,0.00,VWS V14.01,2013-04-02 12:34:00,
2013-04-02 05:39:00,48.5,43.0,30.18,SSW,212,5.0,10.0,81,0.00,,---,0.00,0.00,VWS V14.01,2013-04-02 12:39:00,
2013-04-02 05:44:00,48.5,43.0,30.18,SSW,212,5.0,10.0,81,0.00,,---,0.00,0.00,VWS V14.01,2013-04-02 12:44:00,
2013-04-02 05:49:00,48.5,43.0,30.18,SSW,211,3.0,10.0,81,0.00,,---,0.00,0.00,VWS V14.01,2013-04-02 12:49:00,
2013-04-02 05:54:00,48.4,43.2,30.18,SSW,212,4.0,10.0,82,0.00,,---,0.00,0.00,VWS V14.01,2013-04-02 12:54:00,
2013-04-02 05:59:00,48.4,42.8,30.18,SSW,210,4.0,7.0,81,0.00,,---,0.00,0.00,VWS V14.01,2013-04-02 12:59:00,
2013-04-02 06:00:00,48.4,43.2,30.18,SSW,206,7.0,10.0,82,0.00,,---,0.00,0.00,VWS V14.01,2013-04-02 13:00:00,
2013-04-02 06:04:00,48.4,42.8,30.18,SSW,206,4.0,8.0,81,0.00,,---,0.00,0.00,VWS V14.01,2013-04-02 13:04:00,
2013-04-02 06:09:00,48.3,42.8,30.18,SSW,204,4.0,9.0,81,0.00,,---,0.00,0.00,VWS V14.01,2013-04-02 13:09:00,
2013-04-02 06:14:00,48.3,42.8,30.18,SSW,208,2.0,9.0,81,0.00,,---,0.00,0.00,VWS V14.01,2013-04-02 13:14:00,
2013-04-02 06:19:00,48.4,42.8,30.18,SSW,208,2.0,9.0,81,0.00,,---,0.00,0.00,VWS V14.01,2013-04-02 13:19:00,
2013-04-02 06:24:00,48.4,42.8,30.18,SSW,206,5.0,9.0,81,0.00,,---,0.00,0.00,VWS V14.01,2013-04-02 13:24:00,
2013-04-02 06:29:00,48.4,42.8,30.18,SSW,204,6.0,6.0,81,0.00,,---,0.00,0.00,VWS V14.01,2013-04-02 13:29:00,
2013-04-02 06:30:00,48.4,42.8,30.18,SSW,206,2.0,9.0,81,0.00,,---,0.00,0.00,VWS V14.01,2013-04-02 13:30:00,
2013-04-02 06:34:00,48.4,42.5,30.18,SW,225,4.0,13.0,80,0.00,,---,0.00,0.00,VWS V14.01,2013-04-02 13:34:00,
2013-04-02 06:39:00,48.4,42.5,30.18,SW,215,7.0,13.0,80,0.00,,---,0.00,0.00,VWS V14.01,2013-04-02 13:39:00,
2013-04-02 06:44:00,48.4,42.5,30.18,SSW,206,5.0,13.0,80,0.00,,---,0.00,0.00,VWS V14.01,2013-04-02 13:44:00,
2013-04-02 06:49:00,48.4,42.5,30.18,SW,225,5.0,13.0,80,0.00,,---,0.00,0.00,VWS V14.01,2013-04-02 13:49:00,
2013-04-02 06:54:00,48.5,42.6,30.19,SSW,210,8.0,13.0,80,0.00,,---,0.00,0.00,VWS V14.01,2013-04-02 13:54:00,
2013-04-02 06:59:00,48.4,42.5,30.19,SW,218,5.0,7.0,80,0.00,,---,0.00,0.00,VWS V14.01,2013-04-02 13:59:00,
2013-04-02 07:00:00,48.4,42.5,30.19,SSW,208,4.0,13.0,80,0.00,,---,0.00,0.00,VWS V14.01,2013-04-02 14:00:00,
2013-04-02 07:04:00,48.5,42.6,30.18,SW,218,4.0,8.0,80,0.00,,---,0.00,0.00,VWS V14.01,2013-04-02 14:04:00,
2013-04-02 07:09:00,48.5,42.6,30.18,SSW,204,7.0,8.0,80,0.00,,---,0.00,5.00,VWS V14.01,2013-04-02 14:09:00,
2013-04-02 07:14:00,48.5,42.6,30.18,SSW,202,5.0,9.0,80,0.00,,---,0.00,7.00,VWS V14.01,2013-04-02 14:14:00,
2013-04-02 07:19:00,48.6,42.7,30.18,SSW,208,8.0,10.0,80,0.00,,---,0.00,9.00,VWS V14.01,2013-04-02 14:19:00,
2013-04-02 07:24:00,48.6,42.4,30.18,SSW,204,7.0,10.0,79,0.00,,---,0.00,11.00,VWS V14.01,2013-04-02 14:24:00,
2013-04-02 07:29:00,48.5,42.3,30.18,SSW,212,6.0,9.0,79,0.00,,---,0.00,11.00,VWS V14.01,2013-04-02 14:29:00,
2013-04-02 07:30:00,48.5,42.3,30.18,SSW,198,7.0,10.0,79,0.00,,---,0.00,12.00,VWS V14.01,2013-04-02 14:30:00,
2013-04-02 07:34:00,48.6,42.4,30.18,SW,216,1.0,9.0,79,0.00,,---,0.00,12.00,VWS V14.01,2013-04-02 14:34:00,
2013-04-02 07:39:00,48.6,42.4,30.18,SW,222,5.0,9.0,79,0.00,,---,0.00,28.00,VWS V14.01,2013-04-02 14:39:00,
2013-04-02 07:44:00,48.6,42.4,30.18,SW,217,3.0,10.0,79,0.00,,---,0.00,28.00,VWS V14.01,2013-04-02 14:44:00,
2013-04-02 07:49:00,48.7,42.2,30.18,SSW,212,6.0,10.0,78,0.00,,---,0.00,32.00,VWS V14.01,2013-04-02 14:49:00,
2013-04-02 07:54:00,48.7,42.2,30.18,SW,216,4.0,10.0,78,0.00,,---,0.00,44.00,VWS V14.01,2013-04-02 14:54:00,
2013-04-02 07:59:00,48.8,42.3,30.18,SW,221,0.0,8.0,78,0.00,,---,0.00,51.00,VWS V14.01,2013-04-02 14:59:00,
2013-04-02 08:00:00,48.8,42.3,30.18,SW,218,4.0,10.0,78,0.00,,---,0.00,53.00,VWS V14.01,2013-04-02 15:00:00,
2013-04-02 08:04:00,49.0,42.5,30.18,SW,216,6.0,8.0,78,0.00,,---,0.00,42.00,VWS V14.01,2013-04-02 15:04:00,
2013-04-02 08:09:00,49.1,42.5,30.19,SW,231,4.0,8.0,78,0.00,,---,0.00,33.00,VWS V14.01,2013-04-02 15:09:00,
2013-04-02 08:14:00,49.2,42.3,30.19,SW,231,4.0,8.0,77,0.00,,---,0.00,39.00,VWS V14.01,2013-04-02 15:14:00,
2013-04-02 08:19:00,49.2,42.3,30.19,SW,217,3.0,11.0,77,0.00,,---,0.00,32.00,VWS V14.01,2013-04-02 15:19:00,
2013-04-02 08:24:00,49.2,42.3,30.19,SW,233,1.0,11.0,77,0.00,,---,0.00,39.00,VWS V14.01,2013-04-02 15:24:00,
2013-04-02 08:29:00,49.2,42.3,30.19,SW,235,4.0,5.0,77,0.00,,---,0.00,65.00,VWS V14.01,2013-04-02 15:29:00,
2013-04-02 08:30:00,49.2,42.3,30.19,SW,235,5.0,11.0,77,0.00,,---,0.00,47.00,VWS V14.01,2013-04-02 15:30:00,
2013-04-02 08:34:00,49.3,42.4,30.19,WSW,237,6.0,7.0,77,0.00,,---,0.00,81.00,VWS V14.01,2013-04-02 15:34:00,
2013-04-02 08:39:00,49.4,42.5,30.19,SW,218,5.0,9.0,77,0.00,,---,0.00,90.00,VWS V14.01,2013-04-02 15:39:00,
2013-04-02 08:44:00,49.5,42.6,30.19,SW,214,4.0,9.0,77,0.00,,---,0.00,100.00,VWS V14.01,2013-04-02 15:44:00,
2013-04-02 08:49:00,49.7,42.5,30.19,WSW,237,4.0,10.0,76,0.00,,---,0.00,69.00,VWS V14.01,2013-04-02 15:49:00,
2013-04-02 08:55:00,49.8,42.5,30.19,SW,220,1.0,10.0,76,0.00,,---,0.00,74.00,VWS V14.01,2013-04-02 15:55:00,
2013-04-02 09:00:00,49.9,42.3,30.19,WSW,241,4.0,8.0,75,0.00,,---,0.00,77.00,VWS V14.01,2013-04-02 16:00:00,
2013-04-02 09:05:00,50.1,42.8,30.19,SW,224,8.0,8.0,76,0.00,,---,0.00,105.00,VWS V14.01,2013-04-02 16:05:00,
2013-04-02 09:10:00,50.2,42.9,30.19,SW,226,5.0,8.0,76,0.00,,---,0.00,125.00,VWS V14.01,2013-04-02 16:10:00,
2013-04-02 09:15:00,50.3,42.3,30.19,SSW,203,4.0,11.0,74,0.00,,---,0.00,97.00,VWS V14.01,2013-04-02 16:15:00,
2013-04-02 09:20:00,50.4,42.8,30.19,SSW,213,8.0,11.0,75,0.00,,---,0.00,113.00,VWS V14.01,2013-04-02 16:20:00,
2013-04-02 09:25:00,50.5,42.5,30.19,WSW,237,6.0,11.0,74,0.00,,---,0.00,123.00,VWS V14.01,2013-04-02 16:25:00,
2013-04-02 09:30:00,50.7,43.1,30.19,SW,235,7.0,9.0,75,0.00,,---,0.00,220.00,VWS V14.01,2013-04-02 16:30:00,
2013-04-02 09:35:00,50.9,42.9,30.19,SW,216,4.0,9.0,74,0.00,,---,0.00,118.00,VWS V14.01,2013-04-02 16:35:00,
2013-04-02 09:40:00,51.1,43.1,30.19,SW,219,0.0,9.0,74,0.00,,---,0.00,121.00,VWS V14.01,2013-04-02 16:40:00,
2013-04-02 09:45:00,51.2,43.2,30.19,WSW,241,5.0,9.0,74,0.00,,---,0.00,135.00,VWS V14.01,2013-04-02 16:45:00,
2013-04-02 09:50:00,51.3,43.0,30.19,SSW,207,9.0,9.0,73,0.00,,---,0.00,142.00,VWS V14.01,2013-04-02 16:50:00,
2013-04-02 09:55:00,51.4,43.4,30.19,WSW,258,5.0,10.0,74,0.00,,---,0.00,151.00,VWS V14.01,2013-04-02 16:55:00,
2013-04-02 10:00:00,51.4,42.7,30.19,SW,221,4.0,12.0,72,0.00,,---,0.00,113.00,VWS V14.01,2013-04-02 17:00:00,
2013-04-02 10:05:00,51.4,43.0,30.19,West,259,0.0,12.0,73,0.00,,---,0.00,97.00,VWS V14.01,2013-04-02 17:05:00,
2013-04-02 10:10:00,51.4,43.0,30.19,WSW,241,7.0,12.0,73,0.00,,---,0.00,114.00,VWS V14.01,2013-04-02 17:10:00,
2013-04-02 10:15:00,51.4,43.0,30.19,WSW,258,6.0,12.0,73,0.00,,---,0.00,162.00,VWS V14.01,2013-04-02 17:15:00,
2013-04-02 10:20:00,51.5,42.8,30.19,SSW,203,4.0,12.0,72,0.00,,---,0.00,200.00,VWS V14.01,2013-04-02 17:20:00,
2013-04-02 10:25:00,51.7,43.3,30.19,SW,221,3.0,12.0,73,0.00,,---,0.00,220.00,VWS V14.01,2013-04-02 17:25:00,
2013-04-02 10:30:00,51.9,43.5,30.19,SW,226,6.0,8.0,73,0.00,,---,0.00,190.00,VWS V14.01,2013-04-02 17:30:00,
2013-04-02 10:35:00,52.2,43.1,30.19,SW,216,5.0,10.0,71,0.00,,---,0.00,171.00,VWS V14.01,2013-04-02 17:35:00,
2013-04-02 10:40:00,52.3,43.5,30.19,SW,228,4.0,10.0,72,0.00,,---,0.00,174.00,VWS V14.01,2013-04-02 17:40:00,
2013-04-02 10:45:00,52.5,44.1,30.19,South,190,8.0,10.0,73,0.00,,---,0.00,160.00,VWS V14.01,2013-04-02 17:45:00,
2013-04-02 10:50:00,52.6,43.5,30.19,South,188,5.0,10.0,71,0.00,,---,0.00,178.00,VWS V14.01,2013-04-02 17:50:00,
2013-04-02 10:55:00,52.7,43.6,30.19,South,189,7.0,10.0,71,0.00,,---,0.00,193.00,VWS V14.01,2013-04-02 17:55:00,
2013-04-02 11:00:00,52.9,43.8,30.19,SSW,207,5.0,9.0,71,0.00,,---,0.00,176.00,VWS V14.01,2013-04-02 18:00:00,
2013-04-02 11:05:00,53.1,43.6,30.19,SSW,203,0.0,9.0,70,0.00,,---,0.00,218.00,VWS V14.01,2013-04-02 18:05:00,
2013-04-02 11:10:00,53.3,43.8,30.19,SSW,198,0.0,9.0,70,0.00,,---,0.00,221.00,VWS V14.01,2013-04-02 18:10:00,
2013-04-02 11:15:00,53.6,44.4,30.19,SSW,206,5.0,9.0,71,0.00,,---,0.00,193.00,VWS V14.01,2013-04-02 18:15:00,
2013-04-02 11:20:00,53.8,43.9,30.19,WSW,251,7.0,9.0,69,0.00,,---,0.00,176.00,VWS V14.01,2013-04-02 18:20:00,
2013-04-02 11:25:00,53.9,44.3,30.19,South,189,0.0,9.0,70,0.00,,---,0.00,165.00,VWS V14.01,2013-04-02 18:25:00,
2013-04-02 11:30:00,53.9,44.3,30.19,SSW,208,7.0,7.0,70,0.00,,---,0.00,120.00,VWS V14.01,2013-04-02 18:30:00,
2013-04-02 11:35:00,53.9,44.0,30.19,SSW,207,9.0,11.0,69,0.00,,---,0.00,151.00,VWS V14.01,2013-04-02 18:35:00,
2013-04-02 11:40:00,53.9,44.0,30.19,South,190,8.0,12.0,69,0.00,,---,0.00,151.00,VWS V14.01,2013-04-02 18:40:00,
2013-04-02 11:45:00,53.8,43.9,30.19,SW,226,5.0,12.0,69,0.00,,---,0.00,156.00,VWS V14.01,2013-04-02 18:45:00,
2013-04-02 11:50:00,53.8,43.9,30.19,SSW,206,7.0,12.0,69,0.00,,---,0.00,118.00,VWS V14.01,2013-04-02 18:50:00,
2013-04-02 11:55:00,53.9,44.3,30.19,WSW,243,5.0,12.0,70,0.00,,---,0.00,125.00,VWS V14.01,2013-04-02 18:55:00,
2013-04-02 12:00:00,53.8,43.9,30.20,SW,220,6.0,9.0,69,0.00,,---,0.00,132.00,VWS V14.01,2013-04-02 19:00:00,
2013-04-02 12:05:00,53.6,44.1,30.19,SW,223,4.0,11.0,70,0.00,,---,0.00,116.00,VWS V14.01,2013-04-02 19:05:00,
2013-04-02 12:10:00,53.5,44.0,30.19,SSW,208,2.0,12.0,70,0.00,,---,0.00,98.00,VWS V14.01,2013-04-02 19:10:00,
2013-04-02 12:15:00,53.3,43.4,30.19,West,269,9.0,12.0,69,0.00,,---,0.00,86.00,VWS V14.01,2013-04-02 19:15:00,
2013-04-02 12:20:00,53.2,43.7,30.19,West,279,8.0,12.0,70,0.00,,---,0.00,97.00,VWS V14.01,2013-04-02 19:20:00,
2013-04-02 12:25:00,53.1,43.6,30.20,WSW,237,6.0,12.0,70,0.00,,---,0.00,100.00,VWS V14.01,2013-04-02 19:25:00,
2013-04-02 12:30:00,53.0,43.5,30.19,West,269,7.0,11.0,70,0.00,,---,0.00,111.00,VWS V14.01,2013-04-02 19:30:00,
2013-04-02 12:35:00,52.9,43.4,30.20,SW,219,5.0,11.0,70,0.00,,---,0.00,118.00,VWS V14.01,2013-04-02 19:35:00,
2013-04-02 12:40:00,52.9,43.8,30.19,West,269,7.0,12.0,71,0.00,,---,0.00,141.00,VWS V14.01,2013-04-02 19:40:00,
2013-04-02 12:45:00,52.9,43.8,30.19,West,262,5.0,12.0,71,0.00,,---,0.00,130.00,VWS V14.01,2013-04-02 19:45:00,
2013-04-02 12:50:00,53.0,43.9,30.19,WSW,238,7.0,12.0,71,0.00,,---,0.00,151.00,VWS V14.01,2013-04-02 19:50:00,
2013-04-02 12:55:00,53.0,43.9,30.19,West,259,6.0,12.0,71,0.00,,---,0.00,105.00,VWS V14.01,2013-04-02 19:55:00,
2013-04-02 13:00:00,53.1,44.3,30.19,WSW,243,4.0,7.0,72,0.00,,---,0.00,123.00,VWS V14.01,2013-04-02 20:00:00,
2013-04-02 13:05:00,53.1,43.6,30.19,WSW,245,6.0,8.0,70,0.00,,---,0.00,137.00,VWS V14.01,2013-04-02 20:05:00,
2013-04-02 13:11:00,53.2,44.0,30.19,SW,236,6.0,8.0,71,0.00,,---,0.00,132.00,VWS V14.01,2013-04-02 20:11:00,
2013-04-02 13:16:00,53.3,43.8,30.19,SW,217,6.0,8.0,70,0.00,,---,0.00,118.00,VWS V14.01,2013-04-02 20:16:00,
2013-04-02 13:21:00,53.3,43.8,30.19,SW,219,4.0,8.0,70,0.00,,---,0.00,171.00,VWS V14.01,2013-04-02 20:21:00,
2013-04-02 13:26:00,53.3,44.2,30.20,SW,219,4.0,8.0,71,0.00,,---,0.00,109.00,VWS V14.01,2013-04-02 20:26:00,
2013-04-02 13:30:00,53.4,44.2,30.20,SW,218,2.0,8.0,71,0.00,,---,0.00,114.00,VWS V14.01,2013-04-02 20:30:00,
2013-04-02 13:31:00,53.4,43.9,30.19,SW,225,5.0,7.0,70,0.00,,---,0.00,149.00,VWS V14.01,2013-04-02 20:31:00,
2013-04-02 13:36:00,53.6,44.4,30.19,WSW,251,1.0,7.0,71,0.00,,---,0.00,169.00,VWS V14.01,2013-04-02 20:36:00,
2013-04-02 13:41:00,53.7,44.2,30.19,SW,233,4.0,8.0,70,0.00,,---,0.00,156.00,VWS V14.01,2013-04-02 20:41:00,
2013-04-02 13:46:00,53.8,44.3,30.19,WSW,239,6.0,8.0,70,0.00,,---,0.00,141.00,VWS V14.01,2013-04-02 20:46:00,
2013-04-02 13:51:00,53.9,44.0,30.19,SW,231,2.0,8.0,69,0.00,,---,0.00,116.00,VWS V14.01,2013-04-02 20:51:00,
2013-04-02 13:56:00,54.1,44.5,30.19,SW,231,0.0,8.0,70,0.00,,---,0.00,118.00,VWS V14.01,2013-04-02 20:56:00,
2013-04-02 14:00:00,54.1,44.5,30.19,SW,231,0.0,8.0,70,0.00,,---,0.00,111.00,VWS V14.01,2013-04-02 21:00:00,
2013-04-02 14:01:00,54.2,44.6,30.19,SW,231,4.0,6.0,70,0.00,,---,0.00,121.00,VWS V14.01,2013-04-02 21:01:00,
2013-04-02 14:06:00,54.3,44.7,30.19,SW,227,0.0,7.0,70,0.00,,---,0.00,146.00,VWS V14.01,2013-04-02 21:06:00,
2013-04-02 14:11:00,54.4,44.8,30.19,SW,226,4.0,7.0,70,0.00,,---,0.00,141.00,VWS V14.01,2013-04-02 21:11:00,
2013-04-02 14:16:00,54.5,45.3,30.19,SW,226,1.0,7.0,71,0.00,,---,0.00,132.00,VWS V14.01,2013-04-02 21:16:00,
2013-04-02 14:21:00,54.6,44.7,30.19,WSW,242,2.0,7.0,69,0.00,,---,0.00,141.00,VWS V14.01,2013-04-02 21:21:00,
2013-04-02 14:26:00,54.8,44.8,30.19,SW,229,7.0,8.0,69,0.00,,---,0.00,162.00,VWS V14.01,2013-04-02 21:26:00,
2013-04-02 14:30:00,54.8,44.8,30.19,SW,229,7.0,8.0,69,0.00,,---,0.00,162.00,VWS V14.01,2013-04-02 21:30:00,
2013-04-02 14:31:00,54.9,45.7,30.20,SW,223,0.0,9.0,71,0.00,,---,0.00,142.00,VWS V14.01,2013-04-02 21:31:00,
2013-04-02 14:36:00,55.0,44.7,30.19,SSW,210,2.0,9.0,68,0.00,,---,0.00,125.00,VWS V14.01,2013-04-02 21:36:00,
2013-04-02 14:41:00,55.0,44.7,30.19,WSW,237,5.0,9.0,68,0.00,,---,0.00,97.00,VWS V14.01,2013-04-02 21:41:00,
2013-04-02 14:47:00,55.1,44.7,30.19,SSW,212,5.0,9.0,68,0.00,,---,0.00,105.00,VWS V14.01,2013-04-02 21:47:00,
2013-04-02 14:52:00,55.0,44.7,30.19,SW,223,3.0,9.0,68,0.00,,---,0.00,134.00,VWS V14.01,2013-04-02 21:52:00,
2013-04-02 14:57:00,55.0,45.4,30.19,SSW,210,2.0,4.0,70,0.00,,---,0.00,163.00,VWS V14.01,2013-04-02 21:57:00,
2013-04-02 15:00:00,55.0,45.4,30.19,SSW,210,4.0,11.0,70,0.00,,---,0.00,163.00,VWS V14.01,2013-04-02 22:00:00,
2013-04-02 15:02:00,55.2,45.2,30.19,SSW,202,5.0,9.0,69,0.00,,---,0.00,178.00,VWS V14.01,2013-04-02 22:02:00,
2013-04-02 15:07:00,55.5,45.5,30.19,SW,236,8.0,12.0,69,0.00,,---,0.00,151.00,VWS V14.01,2013-04-02 22:07:00,
2013-04-02 15:12:00,55.6,45.2,30.18,SSW,211,5.0,12.0,68,0.00,,---,0.00,125.00,VWS V14.01,2013-04-02 22:12:00,
2013-04-02 15:17:00,55.6,44.8,30.18,SW,236,1.0,12.0,67,0.00,,---,0.00,144.00,VWS V14.01,2013-04-02 22:17:00,
2013-04-02 15:22:00,55.8,45.0,30.18,SSW,208,6.0,13.0,67,0.00,,---,0.00,185.00,VWS V14.01,2013-04-02 22:22:00,
2013-04-02 15:27:00,55.9,45.1,30.18,SW,218,9.0,11.0,67,0.00,,---,0.00,220.00,VWS V14.01,2013-04-02 22:27:00,
2013-04-02 15:30:00,55.8,45.0,30.18,SW,221,11.0,13.0,67,0.00,,---,0.00,211.00,VWS V14.01,2013-04-02 22:30:00,
2013-04-02 15:32:00,56.0,45.6,30.18,SSW,192,10.0,11.0,68,0.00,,---,0.00,193.00,VWS V14.01,2013-04-02 22:32:00,
2013-04-02 15:37:00,56.2,45.0,30.18,SSW,198,9.0,11.0,66,0.00,,---,0.00,181.00,VWS V14.01,2013-04-02 22:37:00,
2013-04-02 15:42:00,56.3,45.5,30.18,SSW,193,4.0,13.0,67,0.00,,---,0.00,139.00,VWS V14.01,2013-04-02 22:42:00,
2013-04-02 15:47:00,56.4,45.2,30.18,SW,219,8.0,13.0,66,0.00,,---,0.00,118.00,VWS V14.01,2013-04-02 22:47:00,
2013-04-02 15:52:00,56.4,45.2,30.18,WSW,255,5.0,13.0,66,0.00,,---,0.00,134.00,VWS V14.01,2013-04-02 22:52:00,
2013-04-02 15:57:00,56.4,45.2,30.18,SW,214,5.0,8.0,66,0.00,,---,0.00,148.00,VWS V14.01,2013-04-02 22:57:00,
2013-04-02 16:00:00,56.4,46.0,30.18,SW,214,8.0,13.0,68,0.00,,---,0.00,146.00,VWS V14.01,2013-04-02 23:00:00,
2013-04-02 16:02:00,56.4,45.6,30.18,WSW,248,8.0,11.0,67,0.00,,---,0.00,162.00,VWS V14.01,2013-04-02 23:02:00,
2013-04-02 16:08:00,56.4,45.6,30.18,WSW,255,3.0,12.0,67,0.00,,---,0.00,141.00,VWS V14.01,2013-04-02 23:08:00,
2013-04-02 16:13:00,56.5,45.7,30.18,South,187,4.0,12.0,67,0.00,,---,0.00,120.00,VWS V14.01,2013-04-02 23:13:00,
2013-04-02 16:18:00,56.6,45.4,30.18,SSW,206,7.0,12.0,66,0.00,,---,0.00,90.00,VWS V14.01,2013-04-02 23:18:00,
2013-04-02 16:23:00,56.5,45.3,30.18,South,189,8.0,12.0,66,0.00,,---,0.00,125.00,VWS V14.01,2013-04-02 23:23:00,
2013-04-02 16:28:00,56.4,45.6,30.17,SSW,205,7.0,12.0,67,0.00,,---,0.00,91.00,VWS V14.01,2013-04-02 23:28:00,
2013-04-02 16:30:00,56.4,45.6,30.18,SW,215,6.0,12.0,67,0.00,,---,0.00,105.00,VWS V14.01,2013-04-02 23:30:00,
2013-04-02 16:33:00,56.3,45.1,30.17,SSW,210,5.0,12.0,66,0.00,,---,0.00,97.00,VWS V14.01,2013-04-02 23:33:00,
2013-04-02 16:38:00,56.3,45.5,30.17,SSW,202,6.0,13.0,67,0.00,,---,0.00,77.00,VWS V14.01,2013-04-02 23:38:00,
2013-04-02 16:43:00,56.3,45.1,30.17,SSW,202,6.0,13.0,66,0.00,,---,0.00,86.00,VWS V14.01,2013-04-02 23:43:00,
2013-04-02 16:48:00,56.2,45.4,30.17,SSW,209,6.0,13.0,67,0.00,,---,0.00,90.00,VWS V14.01,2013-04-02 23:48:00,
2013-04-02 16:53:00,56.1,45.3,30.17,SW,218,5.0,13.0,67,0.00,,---,0.00,74.00,VWS V14.01,2013-04-02 23:53:00,
2013-04-02 16:58:00,56.0,45.2,30.17,SW,227,4.0,11.0,67,0.00,,---,0.00,69.00,VWS V14.01,2013-04-02 23:58:00,
2013-04-02 17:00:00,56.1,45.3,30.17,SSW,213,11.0,13.0,67,0.00,,---,0.00,72.00,VWS V14.01,2013-04-03 00:00:00,
2013-04-02 17:03:00,55.9,45.1,30.17,SSW,210,5.0,11.0,67,0.00,,---,0.00,60.00,VWS V14.01,2013-04-03 00:03:00,
2013-04-02 17:08:00,55.9,45.5,30.17,SSW,203,7.0,11.0,68,0.00,,---,0.00,98.00,VWS V14.01,2013-04-03 00:08:00,
2013-04-02 17:13:00,55.9,45.5,30.17,South,191,11.0,11.0,68,0.00,,---,0.00,121.00,VWS V14.01,2013-04-03 00:13:00,
2013-04-02 17:18:00,56.0,45.2,30.17,SW,220,5.0,12.0,67,0.00,,---,0.00,105.00,VWS V14.01,2013-04-03 00:18:00,
2013-04-02 17:23:00,56.1,45.3,30.17,SSW,208,1.0,12.0,67,0.00,,---,0.00,72.00,VWS V14.01,2013-04-03 00:23:00,
2013-04-02 17:28:00,56.1,45.3,30.17,SW,217,6.0,7.0,67,0.00,,---,0.00,58.00,VWS V14.01,2013-04-03 00:28:00,
2013-04-02 17:30:00,56.1,45.7,30.17,WSW,243,5.0,12.0,68,0.00,,---,0.00,56.00,VWS V14.01,2013-04-03 00:30:00,
2013-04-02 17:33:00,56.1,45.7,30.16,SW,221,5.0,7.0,68,0.00,,---,0.00,42.00,VWS V14.01,2013-04-03 00:33:00,
2013-04-02 17:38:00,56.0,45.6,30.16,SSW,212,1.0,9.0,68,0.00,,---,0.00,35.00,VWS V14.01,2013-04-03 00:38:00,
2013-04-02 17:43:00,55.9,45.1,30.16,SSW,212,5.0,9.0,67,0.00,,---,0.00,33.00,VWS V14.01,2013-04-03 00:43:00,
2013-04-02 17:48:00,55.7,45.7,30.17,SW,225,1.0,9.0,69,0.00,,---,0.00,53.00,VWS V14.01,2013-04-03 00:48:00,
2013-04-02 17:53:00,55.7,45.3,30.17,WSW,258,4.0,9.0,68,0.00,,---,0.00,39.00,VWS V14.01,2013-04-03 00:53:00,
2013-04-02 17:59:00,55.6,45.2,30.16,SSW,213,4.0,8.0,68,0.00,,---,0.00,32.00,VWS V14.01,2013-04-03 00:59:00,
2013-04-02 18:00:00,55.6,45.2,30.16,SSW,208,2.0,9.0,68,0.00,,---,0.00,35.00,VWS V14.01,2013-04-03 01:00:00,
2013-04-02 18:04:00,55.5,45.1,30.16,SW,217,8.0,9.0,68,0.00,,---,0.00,23.00,VWS V14.01,2013-04-03 01:04:00,
2013-04-02 18:09:00,55.3,44.9,30.16,SSW,207,8.0,9.0,68,0.00,,---,0.00,21.00,VWS V14.01,2013-04-03 01:09:00,
2013-04-02 18:14:00,55.2,45.2,30.16,SSW,211,6.0,10.0,69,0.00,,---,0.00,23.00,VWS V14.01,2013-04-03 01:14:00,
2013-04-02 18:19:00,55.1,45.1,30.16,SSW,210,5.0,10.0,69,0.00,,---,0.00,18.00,VWS V14.01,2013-04-03 01:19:00,
2013-04-02 18:24:00,55.0,45.0,30.16,South,190,7.0,10.0,69,0.00,,---,0.00,21.00,VWS V14.01,2013-04-03 01:24:00,
2013-04-02 18:29:00,54.9,45.3,30.16,SW,219,2.0,10.0,70,0.00,,---,0.00,26.00,VWS V14.01,2013-04-03 01:29:00,
2013-04-02 18:30:00,54.9,45.3,30.16,SSW,198,5.0,10.0,70,0.00,,---,0.00,25.00,VWS V14.01,2013-04-03 01:30:00,
2013-04-02 18:34:00,54.8,45.2,30.16,SSW,212,2.0,10.0,70,0.00,,---,0.00,21.00,VWS V14.01,2013-04-03 01:34:00,
2013-04-02 18:39:00,54.8,45.2,30.16,SSW,197,4.0,10.0,70,0.00,,---,0.00,21.00,VWS V14.01,2013-04-03 01:39:00,
2013-04-02 18:44:00,54.6,45.0,30.16,SSW,209,4.0,10.0,70,0.00,,---,0.00,26.00,VWS V14.01,2013-04-03 01:44:00,
2013-04-02 18:49:00,54.6,45.0,30.15,SSW,210,4.0,10.0,70,0.00,,---,0.00,21.00,VWS V14.01,2013-04-03 01:49:00,
2013-04-02 18:54:00,54.6,45.0,30.15,SSW,212,3.0,10.0,70,0.00,,---,0.00,19.00,VWS V14.01,2013-04-03 01:54:00,
2013-04-02 18:59:00,54.6,45.0,30.15,SSW,213,5.0,6.0,70,0.00,,---,0.00,18.00,VWS V14.01,2013-04-03 01:59:00,
2013-04-02 19:00:00,54.5,44.9,30.15,SW,217,6.0,10.0,70,0.00,,---,0.00,16.00,VWS V14.01,2013-04-03 02:00:00,
2013-04-02 19:04:00,54.5,44.9,30.15,SW,229,5.0,9.0,70,0.00,,---,0.00,14.00,VWS V14.01,2013-04-03 02:04:00,
2013-04-02 19:09:00,54.5,45.3,30.15,SW,216,2.0,9.0,71,0.00,,---,0.00,12.00,VWS V14.01,2013-04-03 02:09:00,
2013-04-02 19:14:00,54.4,45.2,30.15,SW,218,3.0,9.0,71,0.00,,---,0.00,11.00,VWS V14.01,2013-04-03 02:14:00,
2013-04-02 19:19:00,54.4,45.2,30.15,SW,218,2.0,9.0,71,0.00,,---,0.00,7.00,VWS V14.01,2013-04-03 02:19:00,
2013-04-02 19:24:00,54.3,45.1,30.15,SW,218,2.0,9.0,71,0.00,,---,0.00,5.00,VWS V14.01,2013-04-03 02:24:00,
2013-04-02 19:29:00,54.2,45.0,30.15,SW,231,4.0,7.0,71,0.00,,---,0.00,5.00,VWS V14.01,2013-04-03 02:29:00,
2013-04-02 19:30:00,54.3,45.1,30.15,SW,221,6.0,9.0,71,0.00,,---,0.00,5.00,VWS V14.01,2013-04-03 02:30:00,
2013-04-02 19:34:00,54.1,45.3,30.15,SW,230,1.0,7.0,72,0.00,,---,0.00,0.00,VWS V14.01,2013-04-03 02:34:00,
2013-04-02 19:40:00,54.1,45.3,30.15,SW,230,0.0,7.0,72,0.00,,---,0.00,0.00,VWS V14.01,2013-04-03 02:40:00,
2013-04-02 19:45:00,53.9,44.3,30.15,SW,234,1.0,7.0,70,0.00,,---,0.00,0.00,VWS V14.01,2013-04-03 02:45:00,
2013-04-02 19:50:00,53.5,44.0,30.15,North,354,5.0,8.0,70,0.00,,---,0.00,0.00,VWS V14.01,2013-04-03 02:50:00,
2013-04-02 19:55:00,53.0,43.9,30.15,North,352,6.0,8.0,71,0.00,,---,0.00,0.00,VWS V14.01,2013-04-03 02:55:00,
2013-04-02 20:00:00,52.5,43.4,30.16,North,352,1.0,4.0,71,0.00,,---,0.00,0.00,VWS V14.01,2013-04-03 03:00:00,
2013-04-02 20:05:00,52.2,43.5,30.16,North,352,0.0,6.0,72,0.00,,---,0.00,0.00,VWS V14.01,2013-04-03 03:05:00,
2013-04-02 20:10:00,51.9,43.2,30.16,North,352,0.0,6.0,72,0.00,,---,0.00,0.00,VWS V14.01,2013-04-03 03:10:00,
2013-04-02 20:15:00,51.7,43.3,30.16,North,359,2.0,6.0,73,0.00,,---,0.00,0.00,VWS V14.01,2013-04-03 03:15:00,
2013-04-02 20:20:00,51.4,43.0,30.16,North,359,0.0,6.0,73,0.00,,---,0.00,0.00,VWS V14.01,2013-04-03 03:20:00,
2013-04-02 20:25:00,51.3,43.0,30.17,North,359,0.0,6.0,73,0.00,,---,0.00,0.00,VWS V14.01,2013-04-03 03:25:00,
2013-04-02 20:30:00,51.1,43.1,30.17,North,359,5.0,6.0,74,0.00,,---,0.00,0.00,VWS V14.01,2013-04-03 03:30:00,
2013-04-02 20:35:00,50.9,42.9,30.17,North,5,4.0,7.0,74,0.00,,---,0.00,0.00,VWS V14.01,2013-04-03 03:35:00,
2013-04-02 20:40:00,50.7,42.7,30.17,North,8,5.0,7.0,74,0.00,,---,0.00,0.00,VWS V14.01,2013-04-03 03:40:00,
2013-04-02 20:45:00,50.5,42.5,30.17,NNE,14,0.0,7.0,74,0.00,,---,0.00,0.00,VWS V14.01,2013-04-03 03:45:00,
2013-04-02 20:50:00,50.3,42.7,30.17,NNE,14,0.0,7.0,75,0.00,,---,0.00,0.00,VWS V14.01,2013-04-03 03:50:00,
2013-04-02 20:55:00,50.2,42.6,30.18,NNE,14,1.0,7.0,75,0.00,,---,0.00,0.00,VWS V14.01,2013-04-03 03:55:00,
2013-04-02 21:00:00,50.1,42.8,30.18,NNE,15,0.0,5.0,76,0.00,,---,0.00,0.00,VWS V14.01,2013-04-03 04:00:00,
2013-04-02 21:05:00,50.1,42.8,30.18,NNE,15,0.0,5.0,76,0.00,,---,0.00,0.00,VWS V14.01,2013-04-03 04:05:00,
2013-04-02 21:10:00,50.0,42.7,30.18,NNE,15,0.0,5.0,76,0.00,,---,0.00,0.00,VWS V14.01,2013-04-03 04:10:00,
2013-04-02 21:15:00,50.0,42.7,30.18,NNE,15,0.0,5.0,76,0.00,,---,0.00,0.00,VWS V14.01,2013-04-03 04:15:00,
2013-04-02 21:20:00,49.9,42.7,30.18,NNE,15,0.0,5.0,76,0.00,,---,0.00,0.00,VWS V14.01,2013-04-03 04:20:00,
2013-04-02 21:25:00,49.8,42.5,30.18,NNE,15,0.0,5.0,76,0.00,,---,0.00,0.00,VWS V14.01,2013-04-03 04:25:00,
2013-04-02 21:30:00,49.7,42.5,30.18,NNE,15,0.0,0.0,76,0.00,,---,0.00,0.00,VWS V14.01,2013-04-03 04:30:00,
2013-04-02 21:35:00,49.6,42.7,30.18,NNE,15,0.0,0.0,77,0.00,,---,0.00,0.00,VWS V14.01,2013-04-03 04:35:00,
2013-04-02 21:40:00,49.6,43.0,30.18,NNE,15,0.0,0.0,78,0.00,,---,0.00,0.00,VWS V14.01,2013-04-03 04:40:00,
2013-04-02 21:45:00,49.6,42.7,30.18,NNE,15,0.0,0.0,77,0.00,,---,0.00,0.00,VWS V14.01,2013-04-03 04:45:00,
2013-04-02 21:50:00,49.6,42.7,30.18,NNE,15,0.0,0.0,77,0.00,,---,0.00,0.00,VWS V14.01,2013-04-03 04:50:00,
2013-04-02 21:55:00,49.5,42.6,30.18,NNE,15,0.0,1.0,77,0.00,,---,0.00,0.00,VWS V14.01,2013-04-03 04:55:00,
2013-04-02 22:00:00,49.5,42.6,30.18,NNE,15,0.0,0.0,77,0.00,,---,0.00,0.00,VWS V14.01,2013-04-03 05:00:00,
2013-04-02 22:05:00,49.5,42.6,30.18,NNE,15,0.0,0.0,77,0.00,,---,0.00,0.00,VWS V14.01,2013-04-03 05:05:00,
2013-04-02 22:10:00,49.5,42.9,30.19,NNE,15,0.0,0.0,78,0.00,,---,0.00,0.00,VWS V14.01,2013-04-03 05:10:00,
2013-04-02 22:15:00,49.5,42.9,30.18,NNE,15,0.0,0.0,78,0.00,,---,0.00,0.00,VWS V14.01,2013-04-03 05:15:00,
2013-04-02 22:20:00,49.5,42.6,30.18,NNE,15,0.0,0.0,77,0.00,,---,0.00,0.00,VWS V14.01,2013-04-03 05:20:00,
2013-04-02 22:25:00,49.5,42.6,30.18,NNE,15,0.0,0.0,77,0.00,,---,0.00,0.00,VWS V14.01,2013-04-03 05:25:00,
2013-04-02 22:30:00,49.4,42.8,30.18,NNE,15,0.0,0.0,78,0.00,,---,0.00,0.00,VWS V14.01,2013-04-03 05:30:00,
2013-04-02 22:35:00,49.5,42.9,30.18,NNE,15,0.0,0.0,78,0.00,,---,0.00,0.00,VWS V14.01,2013-04-03 05:35:00,
2013-04-02 22:40:00,49.4,42.8,30.18,NNE,15,0.0,0.0,78,0.00,,---,0.00,0.00,VWS V14.01,2013-04-03 05:40:00,
2013-04-02 22:45:00,49.5,42.9,30.19,NNE,15,0.0,1.0,78,0.00,,---,0.00,0.00,VWS V14.01,2013-04-03 05:45:00,
2013-04-02 22:50:00,49.5,42.9,30.19,NNE,15,2.0,3.0,78,0.00,,---,0.00,0.00,VWS V14.01,2013-04-03 05:50:00,
2013-04-02 22:55:00,49.4,42.5,30.18,NNE,14,2.0,5.0,77,0.00,,---,0.00,0.00,VWS V14.01,2013-04-03 05:55:00,
2013-04-02 23:00:00,49.4,42.5,30.18,NNE,13,0.0,5.0,77,0.00,,---,0.00,0.00,VWS V14.01,2013-04-03 06:00:00,
2013-04-02 23:05:00,49.2,42.6,30.19,NNE,13,0.0,5.0,78,0.00,,---,0.00,0.00,VWS V14.01,2013-04-03 06:05:00,
2013-04-02 23:10:00,49.2,42.6,30.19,NNE,13,0.0,5.0,78,0.00,,---,0.00,0.00,VWS V14.01,2013-04-03 06:10:00,
2013-04-02 23:15:00,49.2,42.6,30.19,NNE,13,0.0,5.0,78,0.00,,---,0.00,0.00,VWS V14.01,2013-04-03 06:15:00,
2013-04-02 23:20:00,49.1,42.5,30.18,NNE,13,0.0,5.0,78,0.00,,---,0.00,0.00,VWS V14.01,2013-04-03 06:20:00,
2013-04-02 23:25:00,49.0,42.5,30.18,NNE,13,0.0,5.0,78,0.00,,---,0.00,0.00,VWS V14.01,2013-04-03 06:25:00,
2013-04-02 23:30:00,49.0,42.8,30.18,NNE,13,0.0,4.0,79,0.00,,---,0.00,0.00,VWS V14.01,2013-04-03 06:30:00,
2013-04-02 23:35:00,48.9,42.7,30.18,NNE,13,0.0,4.0,79,0.00,,---,0.00,0.00,VWS V14.01,2013-04-03 06:35:00,
2013-04-02 23:40:00,48.8,42.6,30.18,NNE,13,0.0,4.0,79,0.00,,---,0.00,0.00,VWS V14.01,2013-04-03 06:40:00,
2013-04-02 23:45:00,48.6,42.1,30.18,NNE,13,0.0,4.0,78,0.00,,---,0.00,0.00,VWS V14.01,2013-04-03 06:45:00,
2013-04-02 23:50:00,48.5,42.0,30.19,NNE,13,1.0,4.0,78,0.00,,---,0.00,0.00,VWS V14.01,2013-04-03 06:50:00,
2013-04-02 23:55:00,48.4,41.9,30.19,NNE,13,1.0,5.0,78,0.00,,---,0.00,0.00,VWS V14.01,2013-04-03 06:55:00,